Location: Cheyres
(46.8153°N, 6.7877°E)
Time: 15:03:16
(UTC+00:00)

Cosmos 1328 Rocket - Pass Details

Date: 25 September 2021
Orbit: 601 x 627 km, 82.5° (Epoch: 21 October)

Event Time Altitude Azimuth Distance (km) Brightness Sun altitude
Exits shadow 03:07:42 83° 273° (W) 617 3.3 -23.4°
Maximum altitude 03:07:42 83° 277° (W) 617 3.3 -23.4°
Drops below altitude 10° 03:12:03 10° 8° (N) 1,961 6.5 -22.7°
Sets 03:14:16 0° 9° (N) 2,867 7.4 -22.3°
